Regional Weather Roundup
Issued by NWS

Home | Current Version | Previous Version | Graphics & Text | Print | Product List | Glossary On
Versions: 1 2 3 4 5 6 7 8 9 10 11 12 13 14 15 16 17 18 19 20 21 22 23 24 25 26 27 28 29 30 31 32 33 34 35 36 37 38 39 40 41 42 43 44 45 46 47 48 49 50
000
ASUS43 KLSX 261107
RWRMO

WEATHER SUMMARY FOR MISSOURI
NATIONAL WEATHER SERVICE SPRINGFIELD MO
500 AM CST THU FEB 26 2015

NOTE: "FAIR" INDICATES FEW OR NO CLOUDS BELOW 12,000 FEET WITH NO
       SIGNIFICANT WEATHER AND/OR OBSTRUCTIONS TO VISIBILITY.
       CURRENT SKY AND/OR WEATHER CONDITIONS ARE NOT AVAILABLE FOR
       CHILLICOTHE AND FARMINGTON.

MOZ001>031-035>038-043-044-053-054-261200-
...NORTHERN AND WESTERN MISSOURI...

CITY           SKY/WX    TMP DP  RH WIND       PRES   REMARKS
KANSAS CTY INT PTCLDY    11   4  73 N20G25    30.25R WCI  -7
KANSAS C DTWN  CLEAR     14   4  64 N14G24    30.28R WCI  -1
LEE`S SUMMIT   CLEAR     12   4  70 N20G29    30.23R WCI  -6
ST JOSEPH      PTCLDY     9   2  73 N23G29    30.33R WCI -11
CHILLICOTHE      N/A     12   2  64 N9G18     30.25R WCI   0
KIRKSVILLE     FLURRIES  12   7  80 N15       30.18R WCI  -4

$$
MOZ066>068-077>081-088>096-101>105-261200-
...SOUTHWEST MISSOURI...

CITY           SKY/WX    TMP DP  RH WIND       PRES   REMARKS
SPRINGFIELD    CLOUDY    21  16  81 N17G30    30.06R WCI   7
JOPLIN         CLOUDY    21  13  71 N20G29    30.16R WCI   6

$$
MOZ032>034-039>042-045>050-055>058-069>072-261200-
...CENTRAL MISSOURI...

CITY           SKY/WX    TMP DP  RH WIND       PRES   REMARKS
COLUMBIA       MIX PCPN  19  14  81 N18G31    30.11R WCI   4
JEFFERSON CITY CLOUDY    20  15  81 NW17      30.13R WCI   5
ROLLA          CLOUDY    21  18  88 NW22      30.02R FOG     WCI   5
SEDALIA        FLURRIES  18  12  77 N21       30.18R WCI   1
WHITEMAN AFB   FLURRIES  15   8  73 N21G28    30.17R WCI  -2
WARRENSBURG    PTCLDY    14   7  73 NW18G26   30.22R WCI  -3
OSAGE BEACH    CLOUDY    19  16  86 NW9G20    30.10R WCI   9

$$
MOZ051-052-059>065-261200-
...EAST CENTRAL MISSOURI...

CITY           SKY/WX    TMP DP  RH WIND       PRES   REMARKS
ST LOUIS INTL  LGT SNOW  27  21  80 N12G21    30.01R WCI  16
SPIRIT OF STL  LGT SNOW  28  23  81 N9        30.01R WCI  19
ST CHARLES     LGT SNOW  25  22  88 N15G24    30.02R FOG     WCI  13

$$
MOZ072>076-082>087-097>100-106>115-261200-
...SOUTH CENTRAL AND SOUTHEAST MISSOURI...

CITY           SKY/WX    TMP DP  RH WIND       PRES   REMARKS
CAPE GIRARDEAU CLOUDY    20  19  96 CALM      29.95R FOG
FARMINGTON     CLOUDY    28  25  86 N6        29.95R WCI  22
POPLAR BLUFF   CLOUDY    25  21  85 CALM      29.93R
WEST PLAINS    CLOUDY    27  22  81 NW15G25   29.96R WCI  15

$$



USA.gov is the U.S. government's official web portal to all federal, state and local government web resources and services.